{"data":{"norad_id":62780,"intl_designator":"2025-015Y","name":"STARLINK-33593","alt_names":[],"object_type":"PAYLOAD","status":"ACTIVE","operator":null,"country":"US","launch_date":"2025-01-21","launch_site_code":"AFWTR","launch_vehicle":null,"mission":null,"orbit_class":"UNKNOWN","rcs_meters":null,"size_class":null,"mass_kg":null,"dimensions":null,"purposes":["comms"],"wikipedia_slug":null,"has_3d_model":false,"image_url":null,"decayed_at":null,"tle_current":{"epoch":"2026-09-21T21:10:35.397696Z","epoch_age_seconds":51927,"freshness":"FRESH","line1":"1 62780U 25015Y   26264.88235414  .00009074  00000+0  27943-3 0  9998","line2":"2 62780  53.1573 127.2934 0001074  93.8710 266.2415 15.34391332 94572","mean_motion":15.34391332,"eccentricity":0.0001074,"inclination_deg":53.1573,"raan_deg":127.2934,"arg_perigee_deg":93.871,"mean_anomaly_deg":266.2415,"bstar":0.00027943,"rev_number":9457,"period_min":93.848288240982,"perigee_km":461.99429444232,"apogee_km":463.46371245986,"semimajor_km":6840.8660034511,"source":"CELESTRAK","updated_at":"2026-09-22T09:00:49.665247Z"}}}